Find Starlink 32396

NORAD ID: 61633 Int'l Des: 2024-191 Owner: SPXS Country: US Constellation: starlink operational
LEOCIRCULAR

Live-Position

3D-Globus wird geladen...

Über Starlink 32396

Beschreibung wird geladen...

Nächste Überflüge

Passes for default location (London). Set your location on the main map for personalized predictions.

Höhenverlauf

Loading altitude history...

Zweizeiliger Elementsatz

1 61633U 24191N 26124.52224816 .00002522 00000-0 10115-3 0 9993
2 61633 42.9975 202.7972 0000912 275.9471 84.1277 15.27571643 86030
Epoch: 4. Mai 2026 • Age: 14 hours

Aktueller Status

Höhe 482.8 km
Geschwindigkeit 7.63 km/s
Subsatellitenpunkt -0.90°S, 64.26°W
Startdatum 23. Okt. 2024
Alter 1.5 years
Typ internet

Technische Details

Klassifizierung Payload
Masse 730.00 kg
Trockenmasse 700.00 kg
Gesamtmasse 730.00 kg
Länge 0.30 m
Durchmesser 4.10 m
Spannweite 29.00 m
Form Box + pan
Hersteller SPXS
Bus-Typ Starlink V2M
Phasenstatus In Orbit
Besitzer/Staat SPXS/US

Most Searched